N2WPO Weather Reports


time (UTC)temp
F
wind
direction
speed
knots
gust
knots
rain 1hr
in
rain 24hr
in
rain mn
in
humidity
%
barometer
mb
20260507171620 63 113 2.6 3.5 0.00 0.00 0.47 38 1002.0
20260507171120 62 135 4.3 5.2 0.00 0.00 0.47 39 1002.0
20260507170621 62 68 3.5 5.2 0.00 0.00 0.47 39 1002.0
20260507170120 62 68 3.5 5.2 0.00 0.00 0.47 39 1002.0
20260507165620 62 113 2.6 2.6 0.00 0.00 0.47 44 1002.0
20260507165120 63 158 1.7 2.6 0.00 0.00 0.47 46 1002.0
20260507164620 63 203 2.6 3.5 0.00 0.00 0.47 43 1002.0
20260507164120 63 248 0.9 2.6 0.00 0.00 0.47 42 1002.0
20260507163621 63 68 2.6 3.5 0.00 0.00 0.47 43 1002.0
20260507163121 62 248 2.6 3.5 0.00 0.00 0.47 54 1002.0
20260507162620 62 203 2.6 5.2 0.00 0.00 0.47 48 1003.0
20260507162120 61 158 1.7 2.6 0.00 0.00 0.47 50 1003.0
20260507161621 61 158 3.5 4.3 0.00 0.00 0.47 49 1003.0
20260507161120 60 23 0.9 2.6 0.00 0.00 0.47 55 1002.0
20260507160620 60 338 2.6 3.5 0.00 0.00 0.47 47 1003.0
20260507160122 61 180 2.6 2.6 0.00 0.00 0.47 51 1003.0
20260507155620 61 180 0.9 2.6 0.00 0.00 0.47 55 1003.0
20260507155120 60 113 2.6 3.5 0.00 0.00 0.47 54 1003.0
20260507154621 60 90 2.6 4.3 0.00 0.00 0.47 59 1003.0
20260507154120 60 248 3.5 6.1 0.00 0.00 0.47 56 1003.0
20260507153621 60 113 2.6 2.6 0.00 0.00 0.47 58 1003.0
20260507153121 61 90 2.6 2.6 0.00 0.00 0.47 49 1003.0
20260507152623 61 135 2.6 2.6 0.00 0.00 0.47 58 1003.0
20260507152121 59 270 0.9 1.7 0.00 0.00 0.47 63 1003.0
20260507151620 59 135 0.0 0.0 0.00 0.00 0.47 61 1003.0
20260507151120 59 293 0.9 2.6 0.00 0.00 0.47 58 1003.0
20260507150620 59 270 0.0 0.9 0.00 0.00 0.47 57 1003.0
20260507150121 59 113 2.6 2.6 0.00 0.00 0.47 58 1003.0
20260507145622 59 68 2.6 2.6 0.00 0.00 0.47 64 1003.0
20260507145120 57 180 1.7 2.6 0.00 0.00 0.47 63 1003.0
20260507144620 58 315 0.9 1.7 0.00 0.00 0.47 61 1003.0
20260507144121 58 293 2.6 3.5 0.00 0.00 0.47 57 1003.0
20260507143623 57 158 2.6 3.5 0.00 0.00 0.47 60 1003.0
20260507143121 58 248 0.0 0.9 0.00 0.00 0.47 59 1003.0
20260507142141 58 68 3.5 4.3 0.00 0.00 0.47 58 1003.0
20260507141620 57 270 0.0 1.7 0.00 0.00 0.47 61 1004.0
20260507141120 57 248 2.6 2.6 0.00 0.00 0.47 69 1003.0
20260507140620 57 158 2.6 3.5 0.00 0.00 0.47 68 1004.0
20260507140120 56 293 2.6 3.5 0.00 0.00 0.47 64 1004.0
20260507135620 57 113 2.6 3.5 0.00 0.00 0.47 70 1004.0
20260507135121 56 248 1.7 2.6 0.00 0.00 0.47 71 1004.0
20260507134620 55 270 3.5 4.3 0.00 0.00 0.47 72 1003.0
20260507134121 55 113 0.0 0.9 0.00 0.00 0.47 74 1004.0
20260507133620 55 90 1.7 2.6 0.00 0.00 0.47 77 1004.0
20260507133121 54 225 0.9 1.7 0.00 0.00 0.47 77 1004.0
20260507132620 54 135 2.6 3.5 0.00 0.00 0.47 81 1004.0
20260507132123 53 158 2.6 2.6 0.00 0.00 0.47 82 1004.0
20260507131620 53 180 1.7 4.3 0.00 0.00 0.47 83 1004.0
20260507131120 53 180 2.6 3.5 0.00 0.00 0.47 86 1004.0
20260507130620 52 180 0.9 1.7 0.00 0.00 0.47 88 1004.0
20260507130120 52 90 2.6 3.5 0.00 0.00 0.47 88 1004.0
20260507125622 51 90 0.0 0.9 0.00 0.00 0.47 91 1004.0
20260507125120 50 113 1.7 2.6 0.00 0.00 0.47 92 1004.0
20260507124620 50 180 0.0 1.7 0.00 0.00 0.47 93 1004.0
20260507124122 50 180 1.7 2.6 0.00 0.00 0.47 93 1004.0
20260507123620 49 203 0.9 1.7 0.00 0.00 0.47 93 1004.0
20260507123120 49 158 0.9 1.7 0.00 0.00 0.47 94 1004.0
20260507122620 49 158 1.7 2.6 0.00 0.00 0.47 94 1004.0
20260507122120 49 135 0.9 0.9 0.00 0.00 0.47 94 1004.0
20260507121621 49 90 0.0 0.0 0.00 0.00 0.47 95 1004.0
20260507121120 49 90 0.0 0.0 0.00 0.00 0.47 95 1004.0
20260507120620 49 180 0.0 0.0 0.00 0.00 0.47 95 1004.0
20260507120120 49 270 0.0 0.0 0.00 0.00 0.47 95 1003.0
20260507115620 49 270 0.0 0.0 0.04 0.00 0.47 95 1004.0
20260507115120 48 23 0.0 0.0 0.04 0.00 0.47 95 1004.0
20260507114620 48 270 0.0 0.0 0.04 0.00 0.47 95 1003.0
20260507114120 48 225 0.0 0.0 0.04 0.00 0.47 95 1004.0
20260507113620 48 225 0.0 0.0 0.04 0.00 0.47 95 1004.0
20260507113120 48 225 0.0 0.0 0.04 0.00 0.47 95 1004.0
20260507112621 48 225 0.0 0.0 0.04 0.00 0.47 95 1004.0
20260507112120 47 225 0.0 0.0 0.04 0.00 0.47 95 1003.0
20260507111620 47 293 0.0 0.0 0.02 0.00 0.46 95 1003.0
20260507111120 47 293 0.0 0.0 0.02 0.00 0.46 95 1004.0
20260507110621 47 225 0.0 0.0 0.01 0.00 0.45 94 1003.0
20260507110120 47 135 0.0 0.0 0.00 0.00 0.44 94 1003.0
20260507105620 47 293 0.0 0.0 0.07 0.00 0.44 94 1003.0
20260507105121 47 135 0.9 1.7 0.07 0.00 0.44 94 1003.0
20260507104621 47 248 0.0 0.9 0.06 0.00 0.43 94 1003.0
20260507104120 47 225 0.0 0.9 0.06 0.00 0.43 94 1003.0
20260507103620 47 248 0.0 0.0 0.05 0.00 0.41 94 1003.0
20260507103121 47 203 0.0 0.0 0.04 0.00 0.40 94 1004.0
20260507102620 47 180 0.0 0.0 0.02 0.00 0.39 94 1003.0
20260507102122 47 180 0.0 0.0 0.01 0.00 0.38 94 1003.0
20260507101620 47 315 0.0 0.9 0.01 0.00 0.38 93 1004.0
20260507101120 47 293 0.0 0.0 0.01 0.00 0.38 93 1004.0
20260507100620 47 270 0.0 0.0 0.01 0.00 0.38 93 1003.0
20260507100120 47 270 0.0 0.0 0.00 0.00 0.37 93 1003.0
20260507095620 47 180 0.0 0.0 0.04 0.00 0.37 93 1003.0
20260507095122 47 180 0.0 0.0 0.02 0.00 0.35 93 1003.0
20260507094620 48 23 0.0 0.0 0.02 0.00 0.35 93 1003.0
20260507094120 48 248 0.9 2.6 0.02 0.00 0.35 92 1003.0
20260507093620 48 225 0.0 0.0 0.02 0.00 0.35 92 1003.0
20260507093122 48 135 1.7 2.6 0.01 0.00 0.34 92 1003.0
20260507092620 48 225 0.0 0.9 0.01 0.00 0.34 92 1003.0
20260507092120 48 158 0.9 2.6 0.01 0.00 0.34 92 1003.0
20260507091620 48 248 2.6 2.6 0.01 0.00 0.34 92 1003.0
20260507091120 48 270 0.9 1.7 0.01 0.00 0.34 93 1003.0
20260507090621 48 158 0.9 2.6 0.01 0.00 0.34 93 1003.0
20260507090123 49 135 0.9 1.7 0.00 0.00 0.33 93 1002.0
20260507085620 49 270 0.0 0.9 0.09 0.00 0.33 93 1002.0
20260507085120 49 180 0.0 0.0 0.09 0.00 0.33 93 1003.0
20260507084620 49 135 0.0 0.0 0.09 0.00 0.33 92 1003.0
20260507084120 49 225 2.6 2.6 0.08 0.00 0.32 92 1003.0
20260507083620 50 113 0.9 1.7 0.08 0.00 0.32 93 1002.0
20260507083121 50 248 0.9 2.6 0.07 0.00 0.31 93 1003.0
20260507082620 51 158 0.0 1.7 0.07 0.00 0.31 94 1003.0
20260507082120 51 203 0.0 0.9 0.06 0.00 0.30 94 1002.0
20260507081620 51 158 0.9 1.7 0.05 0.00 0.28 94 1002.0
20260507081119 51 338 0.0 1.7 0.02 0.00 0.26 93 1003.0
20260507080620 51 225 0.0 0.0 0.01 0.00 0.25 93 1003.0
20260507080121 51 180 1.7 2.6 0.00 0.00 0.24 93 1003.0
20260507075620 51 158 0.9 1.7 0.22 0.00 0.22 93 1003.0
20260507075121 52 113 0.9 1.7 0.21 0.00 0.21 92 1003.0
20260507074620 52 45 0.0 0.9 0.18 0.00 0.18 91 1003.0
20260507074120 53 180 3.5 4.3 0.12 0.00 0.12 89 1003.0
20260507073620 54 113 1.7 2.6 0.07 0.00 0.07 88 1003.0
20260507073120 54 158 0.9 1.7 0.00 0.00 0.00 87 1002.0
20260507072620 54 225 0.9 1.7 0.00 0.00 0.00 87 1002.0
20260507072120 54 158 0.0 0.0 0.00 0.00 0.00 88 1002.0
20260507071621 55 90 0.0 0.0 0.00 0.00 0.00 88 1002.0
20260507071120 55 338 0.0 0.9 0.00 0.00 0.00 88 1002.0
20260507070620 55 158 2.6 2.6 0.00 0.00 0.00 87 1002.0
20260507070120 55 315 0.9 1.7 0.00 0.00 0.00 88 1001.0
20260507065620 55 90 0.9 2.6 0.00 0.00 0.00 89 1002.0
20260507065120 56 113 0.0 0.0 0.00 0.00 0.00 90 1002.0
20260507064620 56 135 0.0 0.0 0.00 0.00 0.00 90 1002.0
20260507064120 56 68 0.0 0.0 0.00 0.00 0.00 90 1001.0
20260507063620 56 203 0.0 0.0 0.00 0.00 0.00 91 1002.0
20260507063120 56 113 0.9 0.9 0.00 0.00 0.00 92 1002.0
20260507062621 56 113 0.9 1.7 0.00 0.00 0.00 93 1002.0
20260507062120 56 158 0.0 0.0 0.00 0.00 0.00 93 1002.0
20260507061620 56 203 0.0 0.0 0.00 0.00 0.00 93 1002.0
20260507061121 56 135 0.0 0.0 0.00 0.00 0.00 94 1002.0
20260507060620 56 90 1.7 2.6 0.00 0.00 0.00 94 1002.0
20260507060120 56 158 0.0 0.0 0.00 0.00 0.00 95 1002.0
20260507055620 56 180 0.0 0.0 0.00 0.00 0.00 95 1002.0
20260507055120 56 180 0.0 0.0 0.00 0.00 0.00 95 1002.0
20260507054620 57 90 0.0 0.0 0.00 0.00 0.00 96 1002.0
20260507054121 57 135 0.0 0.0 0.00 0.00 0.00 96 1002.0
20260507053620 57 135 0.0 0.0 0.00 0.00 0.00 96 1002.0
20260507053120 57 135 0.0 0.0 0.00 0.00 0.00 96 1002.0
20260507052620 57 113 0.0 0.0 0.00 0.00 0.00 96 1002.0
20260507052120 57 135 0.0 0.9 0.00 0.00 0.00 96 1002.0
20260507051620 57 315 0.0 0.0 0.00 0.00 0.00 96 1002.0
20260507051120 57 225 0.0 0.0 0.00 0.00 0.00 96 1002.0
20260507050620 57 338 0.0 0.0 0.00 0.00 0.00 96 1002.0
20260507050120 57 293 0.0 0.0 0.00 0.00 0.00 96 1002.0
20260507045620 57 293 0.0 0.0 0.00 0.00 0.00 96 1002.0
20260507045120 57 293 0.0 0.0 0.00 0.00 0.00 96 1002.0
20260507044620 57 293 0.0 0.0 0.00 0.00 0.00 96 1002.0
20260507044120 57 293 0.0 0.0 0.00 0.00 0.00 96 1002.0
20260507043620 57 270 0.0 0.0 0.00 0.00 0.00 96 1002.0
20260507043119 57 270 0.0 0.0 0.00 0.00 0.00 96 1002.0
20260507042620 57 0 0.0 0.0 0.00 0.00 0.00 96 1002.0
20260507042120 57 225 0.0 0.0 0.00 0.00 0.00 96 1002.0
20260507041620 57 225 0.0 0.0 0.00 0.00 0.00 96 1002.0
20260507041120 57 135 1.7 1.7 0.00 0.00 0.00 96 1002.0
20260507040620 57 225 0.0 0.9 0.00 0.00 0.00 96 1002.0
20260507040120 57 248 0.0 0.0 0.00 0.00 0.00 96 1002.0
20260507035620 57 248 0.0 0.0 0.00 0.00 0.07 96 1002.0
20260507035120 57 135 0.0 1.7 0.00 0.00 0.07 96 1002.0
20260507034622 57 203 0.0 0.0 0.00 0.00 0.07 96 1002.0
20260507034120 56 338 0.0 0.0 0.00 0.00 0.07 96 1002.0
20260507033620 56 203 1.7 2.6 0.00 0.00 0.07 96 1002.0
20260507033120 56 180 0.0 0.0 0.00 0.00 0.07 96 1003.0
20260507032621 56 135 0.0 0.9 0.00 0.00 0.07 96 1002.0
20260507032122 56 225 0.0 0.0 0.00 0.00 0.07 96 1002.0
20260507031621 56 68 0.0 0.0 0.00 0.00 0.07 96 1002.0
20260507031120 56 113 0.0 0.0 0.00 0.00 0.07 96 1002.0
20260507030622 56 248 0.0 0.9 0.00 0.00 0.07 96 1002.0
20260507030120 56 158 0.0 0.0 0.00 0.00 0.07 96 1002.0
20260507025621 56 293 0.0 0.9 0.00 0.00 0.07 96 1002.0
20260507025121 56 270 0.9 1.7 0.00 0.00 0.07 96 1002.0
20260507024620 56 90 0.0 0.0 0.00 0.00 0.07 96 1002.0
20260507024120 56 338 0.0 0.0 0.00 0.00 0.07 96 1002.0
20260507023621 56 270 1.7 3.5 0.00 0.00 0.07 96 1002.0
20260507023120 56 23 0.0 0.0 0.00 0.00 0.07 96 1002.0
20260507022620 56 113 1.7 2.6 0.00 0.00 0.07 96 1002.0
20260507022120 56 68 0.0 0.9 0.00 0.00 0.07 96 1002.0
20260507021620 56 90 0.0 0.9 0.00 0.00 0.07 96 1002.0
20260507021120 56 68 0.0 0.0 0.00 0.00 0.07 96 1002.0
20260507020621 56 135 0.9 1.7 0.00 0.00 0.07 96 1002.0
20260507020120 56 293 0.9 1.7 0.00 0.00 0.07 96 1002.0
20260507015621 56 68 0.0 0.0 0.00 0.00 0.07 96 1002.0
20260507015120 56 248 0.0 0.0 0.00 0.00 0.07 96 1002.0
20260507014621 56 248 2.6 4.3 0.00 0.00 0.07 96 1002.0
20260507014121 56 135 0.0 0.9 0.00 0.00 0.07 96 1002.0
20260507013620 56 338 0.0 0.0 0.00 0.00 0.07 96 1002.0
20260507013120 56 315 2.6 3.5 0.00 0.00 0.07 96 1002.0
20260507012620 56 68 0.0 0.9 0.00 0.00 0.07 96 1003.0
20260507012120 56 203 0.9 0.9 0.00 0.00 0.07 96 1003.0
20260507011620 56 248 0.0 0.0 0.00 0.00 0.07 96 1002.0
20260507011120 56 90 1.7 2.6 0.00 0.00 0.07 95 1002.0
20260507010621 56 338 0.0 0.9 0.00 0.00 0.07 95 1003.0
20260507010120 56 180 2.6 5.2 0.00 0.00 0.07 95 1003.0
20260507005620 56 180 4.3 6.1 0.00 0.00 0.07 95 1003.0
20260507005120 56 68 0.9 2.6 0.00 0.00 0.07 95 1003.0
20260507004622 56 158 1.7 2.6 0.00 0.00 0.07 95 1002.0
20260507004121 55 23 1.7 2.6 0.00 0.00 0.07 95 1002.0
20260507003620 55 270 0.9 1.7 0.00 0.00 0.07 95 1003.0
20260507003120 55 338 0.0 1.7 0.00 0.00 0.07 95 1002.0
20260507002620 55 248 0.0 0.0 0.00 0.00 0.07 95 1002.0
20260507002120 55 293 0.0 0.9 0.00 0.00 0.07 95 1002.0
20260507001620 55 270 2.6 2.6 0.00 0.00 0.07 95 1003.0
20260507001121 55 248 3.5 6.1 0.00 0.00 0.07 95 1002.0
20260507000620 55 248 0.0 0.0 0.00 0.00 0.07 95 1002.0
20260507000120 55 270 2.6 4.3 0.00 0.00 0.07 95 1002.0
20260506235620 55 248 0.0 0.9 0.01 0.00 0.07 95 1002.0
20260506235120 55 23 0.0 0.0 0.01 0.00 0.07 95 1002.0
20260506234620 55 45 0.9 1.7 0.01 0.00 0.07 95 1002.0
20260506234120 55 135 2.6 2.6 0.01 0.00 0.07 95 1002.0
20260506233620 55 23 2.6 3.5 0.01 0.00 0.07 95 1002.0
20260506233121 55 45 0.9 1.7 0.01 0.00 0.07 95 1002.0
20260506232620 55 68 0.0 0.0 0.00 0.00 0.06 94 1002.0
20260506232121 55 45 0.9 1.7 0.00 0.00 0.06 94 1002.0
20260506231621 56 248 0.9 1.7 0.00 0.00 0.06 94 1002.0
20260506231120 56 248 1.7 1.7 0.00 0.00 0.06 94 1003.0
20260506230620 56 0 1.7 2.6 0.00 0.00 0.06 94 1003.0
20260506230120 56 293 0.9 1.7 0.00 0.00 0.06 94 1003.0
20260506225620 56 315 0.0 0.0 0.02 0.00 0.06 94 1003.0
20260506225120 56 225 1.7 2.6 0.01 0.00 0.05 94 1002.0
20260506224620 56 90 1.7 2.6 0.01 0.00 0.05 94 1002.0
20260506224120 56 338 0.9 1.7 0.01 0.00 0.05 94 1002.0
20260506223620 56 338 1.7 2.6 0.01 0.00 0.05 94 1003.0
20260506223120 56 113 0.9 2.6 0.01 0.00 0.05 94 1002.0
20260506222620 56 68 0.9 2.6 0.01 0.00 0.05 94 1003.0
20260506222120 56 338 1.7 2.6 0.01 0.00 0.05 94 1002.0
20260506221620 56 90 0.9 1.7 0.01 0.00 0.05 94 1003.0
20260506221120 57 315 3.5 5.2 0.01 0.00 0.05 93 1003.0
20260506220620 57 315 0.9 1.7 0.00 0.00 0.04 93 1003.0
20260506220122 57 90 2.6 5.2 0.00 0.00 0.04 93 1003.0
20260506215621 57 293 2.6 2.6 0.01 0.00 0.02 92 1003.0
20260506215119 57 248 1.7 2.6 0.01 0.00 0.02 92 1003.0
20260506214620 58 248 0.0 0.9 0.01 0.00 0.02 91 1003.0
20260506214120 58 270 2.6 3.5 0.00 0.00 0.01 91 1003.0
20260506213620 58 0 0.0 0.9 0.00 0.00 0.01 90 1003.0
20260506213120 58 113 0.0 1.7 0.00 0.00 0.01 91 1003.0
20260506212620 58 315 0.9 2.6 0.00 0.00 0.01 91 1003.0
20260506212120 58 338 0.0 0.0 0.00 0.00 0.01 91 1003.0
20260506211620 58 315 0.9 1.7 0.00 0.00 0.01 91 1003.0
20260506211120 58 180 2.6 3.5 0.00 0.00 0.01 91 1003.0
20260506210621 58 270 2.6 2.6 0.00 0.00 0.01 91 1003.0
20260506210122 58 270 0.9 1.7 0.00 0.00 0.01 91 1003.0
20260506205620 58 90 3.5 5.2 0.00 0.00 0.01 90 1003.0
20260506205120 59 0 0.9 1.7 0.00 0.00 0.01 90 1003.0
20260506204621 59 68 3.5 6.1 0.00 0.00 0.01 89 1003.0
20260506204121 59 338 1.7 2.6 0.00 0.00 0.01 89 1003.0
20260506203622 59 203 2.6 5.2 0.00 0.00 0.01 89 1003.0
20260506203120 59 270 2.6 3.5 0.00 0.00 0.01 89 1003.0
20260506202621 59 293 0.9 2.6 0.00 0.00 0.01 89 1003.0
20260506202121 60 338 1.7 2.6 0.00 0.00 0.01 88 1003.0
20260506201621 60 293 2.6 4.3 0.00 0.00 0.01 87 1003.0
20260506201122 61 0 2.6 3.5 0.00 0.00 0.01 87 1003.0
20260506200620 61 315 0.9 1.7 0.00 0.00 0.01 87 1003.0
20260506200121 61 225 3.5 6.1 0.00 0.00 0.01 87 1003.0
20260506195621 61 225 2.6 3.5 0.00 0.00 0.00 87 1003.0
20260506195120 61 23 0.0 0.9 0.00 0.00 0.00 84 1003.0
20260506194619 62 338 1.7 2.6 0.00 0.00 0.00 84 1003.0
20260506194121 62 270 0.0 0.0 0.00 0.00 0.00 83 1003.0
20260506193621 62 0 2.6 2.6 0.00 0.00 0.00 82 1004.0
20260506193120 62 248 1.7 2.6 0.00 0.00 0.00 79 1004.0
20260506192621 63 68 0.0 1.7 0.00 0.00 0.00 79 1004.0
20260506192120 63 158 0.0 0.0 0.00 0.00 0.00 78 1003.0
20260506191620 64 293 6.1 11.3 0.00 0.00 0.00 74 1004.0
20260506191120 64 113 0.9 1.7 0.00 0.00 0.00 72 1004.0
20260506190620 64 248 5.2 8.7 0.00 0.00 0.00 71 1004.0
20260506190124 64 270 0.9 1.7 0.00 0.00 0.00 71 1004.0
20260506185620 65 315 1.7 2.6 0.00 0.00 0.00 71 1004.0
20260506185120 65 293 1.7 4.3 0.00 0.00 0.00 71 1004.0
20260506184621 65 338 0.9 1.7 0.00 0.00 0.00 70 1004.0
20260506184120 65 203 1.7 2.6 0.00 0.00 0.00 69 1003.0
20260506183621 66 315 3.5 4.3 0.00 0.00 0.00 69 1004.0
20260506183121 66 338 3.5 6.1 0.00 0.00 0.00 68 1004.0
20260506182621 66 158 3.5 5.2 0.00 0.00 0.00 69 1004.0
20260506182121 66 270 1.7 2.6 0.00 0.00 0.00 68 1004.0
20260506181620 66 315 1.7 2.6 0.00 0.00 0.00 67 1004.0
20260506181120 66 158 2.6 3.5 0.00 0.00 0.00 67 1004.0
20260506180620 67 338 1.7 2.6 0.00 0.00 0.00 68 1004.0
20260506180120 67 23 1.7 2.6 0.00 0.00 0.00 67 1004.0
20260506175620 67 315 0.0 0.9 0.00 0.00 0.00 66 1004.0
20260506175121 67 68 0.9 1.7 0.00 0.00 0.00 66 1004.0
20260506174621 68 338 1.7 2.6 0.00 0.00 0.00 65 1004.0
20260506174121 68 338 0.0 0.9 0.00 0.00 0.00 63 1004.0
20260506173621 68 23 0.9 2.6 0.00 0.00 0.00 64 1005.0
20260506173122 69 225 1.7 2.6 0.00 0.00 0.00 63 1005.0
20260506172621 70 203 2.6 4.3 0.00 0.00 0.00 61 1005.0
20260506172120 70 293 1.7 2.6 0.00 0.00 0.00 62 1004.0